Location: Unspecified
(0.0000°N, 0.0000°E)
Time: 06:19:22
(UTC+00:00)

LightSail 2 - Pass Details

Date: 13 October 2019
Orbit: 707 x 723 km, 24.0° (Epoch: 13 October)

Event Time Altitude Azimuth Distance (km) Brightness Sun altitude
Exits shadow 04:49:37 10° 231° (SW) 2,216 7.3 -14.1°
Reaches altitude 10° 04:49:50 10° 229° (SW) 2,176 7.3 -14.0°
Maximum altitude 04:52:19 13° 200° (SSW) 1,948 7.3 -13.4°
Drops below altitude 10° 04:54:47 10° 171° (S) 2,173 7.9 -12.8°
Sets 04:58:30 0° 144° (SE) 3,089 9.1 -11.9°
